This demonstration page uses our WeatherBlox Daily Observations layout. Learn more.

Left ArrowRight Arrow

41.55636, -103.73856

Hourly Observations for December 16, 2018

Temp ( °F °C ) Dew Point ( °F °C ) Humidity (%) Winds ( mph kmh ) Pressure ( in mb ) Visibility ( mi km ) Precip ( " mm )
5:58 pm 17:58 Clear 38 3.2 21 -5.9 52 52 W 12 19 30.15 1021 10 16 N/A
6:58 pm 18:58 Clear 40 4.5 20 -6.4 45 45 WNW 10 17 30.15 1021 10 16 N/A
7:58 pm 19:58 Clear 39 3.8 19 -7 46 46 NNW 6 9 30.19 1023 10 16 N/A
8:58 pm 20:58 Mostly Cloudy 37 2.8 21 -6.1 52 52 WNW 9 15 30.22 1023 10 16 N/A
9:58 pm 21:58 Mostly Cloudy 38 3.5 20 -6.8 47 47 NW 6 9 30.24 1024 10 16 N/A
10:58 pm 22:58 Mostly Cloudy 40 4.3 22 -5.8 48 48 W 7 11 30.26 1025 10 16 N/A
11:58 pm 23:58 Partly Cloudy 38 3.2 20 -6.6 49 49 W 8 13 30.26 1025 10 16 N/A
12:58 am 00:58 Clear 41 4.8 16 -9.1 36 36 W 5 7 30.24 1024 10 16 N/A
1:58 am 01:58 Clear 37 2.9 17 -8.5 43 43 Calm 30.24 1024 10 16 N/A
2:58 am 02:58 Clear 33 0.3 18 -7.9 55 55 W 5 7 30.29 1026 10 16 N/A
3:58 am 03:58 Clear 34 0.9 18 -7.7 53 53 W 5 7 30.30 1026 10 16 N/A
4:58 am 04:58 Clear 35 1.7 18 -7.8 50 50 W 3 6 30.32 1027 10 16 N/A
5:58 am 05:58 Clear 31 -0.5 18 -7.6 59 59 SW 9 15 30.35 1028 10 16 N/A
6:58 am 06:58 Clear 33 0.7 19 -7.3 55 55 WSW 14 22 30.34 1027 10 16 N/A
7:58 am 07:58 Sunny 38 3.4 17 -8.2 43 43 WSW 12 19 30.34 1027 10 16 N/A
8:58 am 08:58 Sunny 42 5.6 20 -6.6 41 41 WNW 3 6 30.33 1027 10 16 N/A
9:58 am 09:58 Sunny 45 7.2 20 -6.9 36 36 SSW 8 13 30.33 1027 10 16 N/A
10:58 am 10:58 Sunny 46 7.5 22 -5.8 39 39 SW 9 15 30.30 1026 10 16 N/A
11:58 am 11:58 Sunny 47 8.1 21 -6.3 36 36 S 10 17 30.26 1025 10 16 N/A
12:58 pm 12:58 Sunny 49 9.6 23 -4.9 36 36 S 8 13 30.22 1023 10 16 N/A
1:58 pm 13:58 Sunny 51 10.6 21 -6.3 30 30 SSW 6 9 30.22 1024 10 16 N/A
2:58 pm 14:58 Sunny 51 10.5 21 -6.3 30 30 SSE 6 9 30.24 1024 10 16 N/A
3:58 pm 15:58 Sunny 49 9.2 21 -5.9 34 34 S 5 7 30.26 1025 10 16 N/A
4:58 pm 16:58 Clear 41 4.8 21 -6.2 45 45 S 8 13 30.29 1026 10 16 N/A

Powered by AerisWeather